Theta_e
340 344 338 336 339 339 339 338 335 331 329 330 327 325 321 318 316 316 315 313 323 328 329 332 333 333 332 327 323 324 326 328 328 328 330 330 330 330 330 330 331 330 330
343 344 340 334 335 338 338 338 336 332 330 331 327 324 319 316 316 314 314 323 330 331 331 332 332 331 330 327 325 325 326 326 327 327 329 329 329 330 329 329 330 330 330
343 345 340 335 334 336 338 338 336 336 332 331 327 323 317 316 317 318 323 326 330 328 331 330 330 327 326 323 324 325 325 325 326 326 327 328 328 328 327 328 329 328 327
342 343 341 335 334 339 340 338 336 334 331 332 327 321 318 323 326 329 320 325 326 327 328 328 328 321 323 324 325 326 326 322 324 326 326 327 325 325 325 326 325 325 325
337 341 342 336 333 338 338 336 336 334 332 332 327 320 323 329 328 328 325 326 324 324 319 324 314 316 319 321 322 322 319 324 324 324 324 325 324 324 322 323 322 321 318
338 342 341 339 333 336 336 334 334 335 333 331 326 321 328 323 325 326 327 324 316 316 324 310 309 312 313 314 314 314 318 323 322 323 323 323 321 318 315 313 309 309 307
339 340 339 337 335 332 333 333 333 335 334 331 324 321 324 322 324 327 327 319 312 310 310 308 309 309 310 310 311 316 321 321 321 322 322 321 315 310 307 305 305 304 304
337 335 337 337 336 332 332 333 333 336 335 332 327 322 321 322 326 326 320 314 310 309 308 308 308 308 308 309 314 321 322 321 322 322 321 320 313 308 305 304 303 303 302
335 331 336 337 336 332 330 333 334 337 335 331 327 323 321 325 326 320 323 315 310 309 308 307 307 307 307 310 317 319 320 321 322 321 320 319 312 310 308 307 304 303 304
336 332 333 335 333 328 323 324 332 336 335 332 326 322 321 324 322 321 326 319 312 310 310 310 309 308 308 309 312 318 320 321 321 321 320 313 314 313 308 305 305 305 305
333 333 333 333 332 327 324 327 327 328 335 331 326 322 324 327 323 325 328 319 313 314 315 313 311 309 308 308 312 319 321 321 321 321 319 313 314 314 310 308 306 305 305
332 333 333 332 331 328 325 326 326 324 328 330 326 323 326 327 327 328 325 319 316 316 317 314 311 309 309 309 318 320 321 322 321 321 318 317 317 315 311 307 306 304 303
331 332 332 331 329 326 324 326 324 329 332 328 326 322 328 326 326 326 324 318 318 318 318 315 312 312 317 316 320 322 322 322 322 320 317 318 319 316 313 308 305 304 304
329 330 330 327 326 324 325 327 325 323 327 327 325 322 327 324 325 324 322 320 319 319 319 315 317 320 319 318 320 322 322 322 321 320 317 318 317 317 314 310 307 307 307
328 329 329 327 327 324 325 327 326 327 327 325 322 320 323 324 324 324 322 323 321 323 321 320 323 321 320 319 320 321 322 322 321 320 318 317 317 315 318 315 311 309 309
328 328 329 328 325 326 324 325 324 324 326 324 321 320 322 320 324 324 324 325 323 323 323 322 323 321 319 319 320 321 321 321 321 321 319 317 317 317 317 316 314 314 311
327 328 328 327 326 326 324 324 325 325 326 326 321 320 320 324 323 325 325 324 324 324 322 322 322 321 319 319 319 320 320 321 321 321 320 319 317 318 318 317 317 315 315
327 327 327 327 327 325 325 326 326 326 325 323 321 321 318 316 321 323 323 323 323 324 323 321 320 320 319 318 319 319 319 320 320 321 321 320 318 318 317 318 318 316 316
327 328 327 326 325 325 324 324 323 323 324 322 321 318 314 315 320 321 321 321 321 321 321 320 319 319 319 318 318 318 318 318 319 319 319 320 320 319 317 314 315 317 316
328 325 327 325 325 325 325 323 322 322 323 320 319 317 320 321 319 319 319 320 319 318 319 319 319 318 318 317 316 316 317 317 317 316 316 317 317 317 318 318 315 310 313
327 325 327 327 324 325 324 322 320 321 320 319 313 317 319 319 317 316 315 315 316 318 318 318 318 317 316 315 314 315 315 315 315 315 314 314 313 312 312 316 317 316 315
327 326 324 326 326 326 325 322 320 320 321 319 316 319 318 315 315 315 318 314 318 317 318 319 319 320 318 316 314 314 316 316 316 315 314 314 313 314 314 313 314 315 316
326 325 325 324 325 325 324 321 320 319 320 318 317 316 317 319 319 318 319 319 316 321 321 322 321 321 320 318 316 319 319 319 319 317 317 314 314 314 314 314 314 311 311
325 325 325 322 324 323 322 323 321 319 319 318 317 316 316 318 318 318 316 318 319 320 322 323 323 321 321 322 320 319 321 322 321 320 319 317 316 315 316 314 314 313 311
326 325 323 323 322 323 323 322 323 319 319 320 317 318 320 316 317 319 316 317 318 320 321 322 322 321 321 320 321 322 320 320 321 321 321 318 317 317 317 319 317 313 312
325 325 324 323 322 322 323 322 323 322 319 319 319 318 318 317 318 318 320 319 318 318 320 318 319 321 320 319 318 319 321 321 321 321 320 321 320 320 319 319 317 318 313
Wind_Speed
7 14 24 24 25 26 26 26 26 26 25 24 22 21 21 20 20 21 19 18 19 19 20 22 23 22 21 22 24 24 24 24 24 24 24 24 24 25 24 24 24 24 24
9 13 22 24 24 27 28 28 26 26 26 25 24 23 22 21 22 22 21 22 22 23 22 23 23 21 20 21 23 23 23 24 23 23 23 24 23 23 22 22 23 23 22
9 12 23 27 25 28 29 29 29 28 28 27 26 24 23 24 24 24 23 21 22 21 21 22 21 20 20 21 23 24 24 23 23 22 22 22 21 20 19 19 19 19 17
7 16 19 29 26 26 28 30 28 29 30 29 28 26 25 25 24 23 21 20 20 21 21 22 21 22 23 23 23 24 25 26 27 24 19 18 19 17 16 16 15 14 14
8 16 18 28 28 26 28 29 30 30 32 32 29 27 26 26 25 23 21 21 21 20 21 23 24 25 24 22 22 24 27 31 25 18 17 18 18 17 15 14 13 12 10
8 15 21 26 25 26 26 28 28 34 35 33 31 30 28 27 25 23 22 22 21 22 24 23 24 24 22 21 21 23 27 28 21 18 19 20 18 17 14 13 12 13 13
8 15 21 24 28 29 27 28 32 37 37 34 33 30 29 26 24 23 22 22 23 23 23 24 25 24 23 22 25 27 28 24 17 18 18 18 19 18 17 16 16 16 16
11 16 21 24 25 29 25 31 33 39 38 36 34 31 29 27 25 23 23 25 24 24 24 25 25 25 24 25 29 31 26 21 17 18 18 18 19 18 18 19 19 19 18
13 14 21 23 27 27 25 27 31 36 38 38 35 32 30 28 25 25 25 24 26 26 26 26 26 25 25 27 27 30 28 22 17 17 18 18 19 20 19 19 20 19 18
11 13 16 24 20 29 22 41 21 28 40 38 34 33 30 30 27 28 26 25 28 28 28 27 26 25 24 25 26 29 29 22 17 16 15 18 19 19 19 18 18 17 17
9 11 15 20 18 19 25 25 20 36 41 37 36 34 31 30 32 29 26 27 29 29 28 26 25 24 24 24 25 27 21 15 15 13 15 20 19 18 18 17 17 17 16
10 12 13 15 17 14 12 28 31 34 36 37 35 34 30 29 29 25 27 30 30 29 27 25 23 24 23 24 24 21 16 15 13 12 16 18 19 17 17 17 15 16 16
10 10 13 14 15 12 13 26 27 23 33 35 34 34 31 32 31 30 30 32 30 28 26 25 24 21 17 17 13 10 15 14 12 13 17 19 17 17 15 15 15 14 14
7 9 14 18 13 14 10 15 35 29 35 34 33 33 31 33 31 30 35 35 32 28 27 25 21 17 16 15 12 15 14 14 13 13 15 17 17 17 15 15 14 13 12
6 11 10 16 13 14 13 19 24 23 27 42 36 36 29 30 28 31 34 32 32 23 25 22 16 17 16 15 14 14 15 14 14 12 14 14 14 13 15 13 11 9 10
9 9 16 19 13 12 22 18 25 25 30 32 36 43 32 33 29 28 30 28 29 23 21 19 17 17 16 16 15 14 14 15 13 13 12 15 13 9 6 5 6 7 7
12 13 13 17 13 12 20 24 23 24 38 36 42 42 36 37 34 28 25 26 26 24 22 19 18 18 17 16 15 14 13 14 14 13 12 11 14 15 11 7 5 3 5
15 13 17 11 9 12 17 18 21 22 37 41 44 36 39 37 35 30 28 24 24 24 23 20 19 18 18 17 15 14 13 12 13 14 12 10 11 12 14 14 11 9 8
16 16 18 15 11 17 15 14 13 21 42 48 44 36 39 39 39 29 28 23 24 24 23 21 20 18 18 17 15 15 13 12 13 12 12 14 13 12 10 12 14 15 14
15 17 22 16 13 22 20 18 16 28 37 43 39 35 37 40 41 34 32 25 23 25 22 20 18 18 17 16 15 14 13 13 12 13 13 13 14 16 15 15 15 18 17
15 18 23 21 18 21 23 23 24 33 35 39 42 33 31 36 34 29 25 27 25 23 21 21 19 18 16 16 15 13 13 14 13 13 14 15 16 16 16 16 17 12 14
17 17 21 23 21 22 24 27 27 37 36 41 43 32 32 34 33 33 23 26 24 21 21 22 21 17 16 16 16 14 12 12 16 20 18 18 17 16 16 18 18 20 18
18 19 18 23 22 23 20 29 27 30 37 46 41 40 39 37 31 34 32 27 28 24 26 25 24 19 17 16 19 13 12 14 19 18 21 20 19 20 18 16 21 23 22
18 18 18 18 25 23 24 30 35 38 42 47 50 46 49 43 38 35 40 33 31 30 26 26 22 24 22 18 19 24 19 10 5 10 11 16 20 23 20 20 21 25 25
19 18 18 19 19 25 29 31 32 38 39 38 51 44 39 44 41 36 44 42 36 32 28 26 25 26 23 22 19 15 20 24 22 16 14 13 17 21 21 20 22 26 27
19 19 18 22 23 26 30 31 34 35 40 41 46 53 49 44 43 42 38 40 43 41 33 33 27 27 24 23 22 22 21 17 19 18 17 20 22 27 29 26 27 32 27
Wind_Direction
176 228 200 178 184 186 188 188 185 184 180 177 172 166 166 162 152 150 146 144 137 130 128 127 127 126 124 126 130 132 128 123 120 118 114 111 109 106 104 104 102 102 102
203 217 208 187 190 193 195 193 191 189 185 181 174 170 169 163 155 152 147 141 141 143 142 138 136 136 132 129 128 130 130 127 123 121 117 116 115 116 115 113 109 110 111
184 192 203 198 196 200 204 201 195 194 189 185 178 174 170 163 160 153 149 147 152 152 152 150 146 141 140 136 133 131 131 127 120 120 117 117 120 123 121 122 122 120 122
198 202 211 204 198 198 203 206 200 198 189 187 180 176 171 162 162 158 151 155 156 156 155 149 147 150 143 140 136 131 121 107 93 88 105 108 109 127 129 126 121 117 117
218 220 206 216 206 201 204 205 206 200 195 188 180 177 170 165 166 163 159 160 156 157 151 142 145 147 143 142 139 133 123 106 105 113 114 110 110 119 127 127 129 131 128
232 204 224 225 210 202 210 204 201 205 196 187 182 177 173 172 173 172 169 163 160 157 145 150 146 144 145 145 144 135 119 111 118 119 113 115 120 130 144 140 134 132 123
256 210 223 231 218 213 217 220 211 199 193 188 183 180 176 177 175 175 172 164 161 158 154 147 147 142 142 140 135 128 117 114 117 115 115 116 117 128 131 126 124 117 115
244 221 211 227 229 223 233 230 209 189 191 190 187 181 182 180 176 174 169 164 160 154 152 148 145 143 142 136 133 123 117 114 122 120 115 116 121 121 121 121 116 113 111
249 230 220 225 220 222 242 264 210 190 192 189 185 183 182 179 176 167 165 161 153 149 151 148 145 142 141 140 136 128 122 122 125 123 119 120 122 119 118 116 115 114 112
247 246 231 231 235 220 250 251 223 212 186 187 184 182 180 176 176 167 168 157 153 149 145 143 141 141 143 142 139 132 124 121 124 121 127 132 124 123 121 120 116 114 109
239 256 228 229 232 248 270 225 242 241 177 181 182 180 176 166 167 167 167 162 155 150 146 143 140 140 143 139 132 117 108 128 129 134 138 131 129 127 125 120 117 110 107
262 228 223 223 224 230 240 240 238 233 179 179 178 176 166 173 165 163 172 165 158 153 148 143 139 137 140 140 129 118 116 134 135 138 140 133 133 131 129 123 119 115 111
262 228 227 198 212 237 254 236 216 225 173 173 175 172 170 169 163 175 168 165 159 155 151 147 143 134 155 153 134 129 147 135 139 142 143 139 137 137 132 132 125 124 119
238 222 199 187 206 214 226 224 215 207 177 175 173 171 177 173 165 173 169 168 164 157 158 155 136 152 162 162 150 151 139 144 146 144 146 149 147 146 146 142 134 128 120
212 206 198 202 212 209 210 217 186 203 192 184 174 172 181 169 169 168 171 170 167 162 155 161 155 164 166 167 160 147 144 147 146 148 153 155 158 148 151 153 139 135 125
197 190 191 196 199 225 205 196 210 224 204 192 188 172 177 184 174 167 169 173 163 172 165 165 172 169 173 171 164 155 152 151 148 150 163 159 157 158 154 161 149 165 129
182 196 204 205 230 232 211 215 220 219 209 214 198 186 175 186 169 165 166 171 169 178 170 176 176 172 177 174 167 165 161 159 159 158 161 176 166 175 186 207 215 241 220
187 207 217 217 225 194 211 214 217 226 210 185 175 175 175 179 174 173 168 175 179 176 176 181 177 178 184 178 174 177 170 169 171 165 167 187 189 193 194 201 218 238 234
193 188 213 212 209 193 203 203 200 189 178 177 170 164 167 185 189 173 173 177 176 179 177 183 180 185 187 183 182 185 180 180 181 179 184 185 201 201 230 214 217 222 233
204 199 202 210 204 203 200 192 181 172 174 169 165 168 180 189 187 183 182 181 178 174 178 180 185 188 191 186 186 190 188 193 196 194 195 201 205 205 206 239 243 227 227
197 201 208 202 214 212 196 186 179 171 167 169 162 179 192 193 194 198 196 193 185 181 180 187 192 191 191 190 184 192 201 206 207 210 210 212 218 222 219 208 236 245 250
196 204 213 213 216 211 200 191 187 184 186 173 173 180 176 189 194 193 195 197 187 199 196 201 197 194 194 195 192 200 210 222 228 226 219 220 220 220 224 231 228 222 229
200 200 199 211 215 214 193 203 190 186 180 181 181 182 183 182 193 200 191 200 201 196 203 206 200 194 195 204 192 213 219 230 224 225 230 217 225 226 223 236 239 243 238
200 202 201 206 208 209 203 209 201 193 188 192 186 186 197 195 194 213 209 207 210 200 209 208 207 207 201 207 219 212 227 262 249 182 213 234 220 238 243 230 236 256 251
196 197 191 206 210 206 203 203 206 203 199 197 198 194 199 201 206 207 215 217 213 217 214 214 212 212 216 222 223 232 242 237 245 247 235 215 230 239 244 263 263 250 259
196 195 192 197 197 204 205 210 213 208 203 201 202 205 203 200 205 212 212 216 218 216 222 224 221 225 225 233 230 234 233 235 237 239 245 238 244 258 263 264 265 258 249